Основна » Време у Того » Сокоде » Paratao » Meteograms hourly weather

Paratao, метеограме

Paratao: време по сату
Петак, 14 Маја
Време Падавине Температура Осећа се Притисак Влажност Ветар
07:00 0 мм +24.4° +27.2° 726.000 мм.ж.с 85% 1 м/с, ЈИ
08:00 0 мм +26.5° +29.1° 727.000 мм.ж.с 75% 1 м/с, ЈИ
09:00 0 мм +28.6° +30.8° 727.000 мм.ж.с 64% 2 м/с, ЈИ
10:00 0 мм +30.4° +32.4° 727.000 мм.ж.с 57% 2 м/с, ЈИ
11:00 0 мм +32.3° +33.9° 726.000 мм.ж.с 49% 2 м/с, ЈИ
12:00 0 мм +34.1° +35.2° 726.000 мм.ж.с 41% 2 м/с, ЈИ
13:00 0 мм +34.7° +35.6° 725.000 мм.ж.с 39% 2 м/с, ЈИ
14:00 0 мм +35.2° +35.8° 725.000 мм.ж.с 36% 2 м/с, ЈИ
15:00 0 мм +35.7° +36.2° 724.000 мм.ж.с 34% 2 м/с, ЈИ
16:00 0 мм +34° +34.8° 724.000 мм.ж.с 39% 2 м/с, ЈИ
17:00 0 мм +32.3° +33.3° 724.000 мм.ж.с 44% 2 м/с, ЈИ
18:00 0 мм +30.6° +31.8° 724.000 мм.ж.с 49% 2 м/с, ЈИ
19:00 0 мм +29.5° +30.8° 724.000 мм.ж.с 52% 2 м/с, ЈИ
20:00 0 мм +28.5° +29.8° 725.000 мм.ж.с 55% 1 м/с, ЈИ
21:00 0 мм +27.4° +28.8° 725.000 мм.ж.с 58% 1 м/с, Ј
22:00 0 мм +26.6° +28.3° 725.000 мм.ж.с 64% 1 м/с, Ј
23:00 0 мм +25.7° +27.8° 725.000 мм.ж.с 70% 1 м/с, Ј
Субота, 15 Маја
Време Падавине Температура Осећа се Притисак Влажност Ветар
00:00 0 мм +24.9° +27.2° 725.000 мм.ж.с 76% 2 м/с, Ј
01:00 0 мм +24.5° +26.8° 725.000 мм.ж.с 79% 1 м/с, Ј
02:00 0 мм +24° +26.4° 725.000 мм.ж.с 81% 1 м/с, Ј
03:00 0 мм +23.6° +26° 725.000 мм.ж.с 84% 1 м/с, Ј
04:00 0 мм +23.4° +25.9° 725.000 мм.ж.с 85% 1 м/с, Ј
05:00 0 мм +23.2° +25.8° 726.000 мм.ж.с 86% 1 м/с, Ј
06:00 0 мм +23.1° +25.6° 726.000 мм.ж.с 87% 1 м/с, Ј
07:00 0 мм +25.4° +27.9° 726.000 мм.ж.с 77% 1 м/с, ЈЗ
08:00 0 мм +27.8° +30.2° 727.000 мм.ж.с 68% 1 м/с, ЈЗ
09:00 0 мм +30.2° +32.2° 728.000 мм.ж.с 58% 1 м/с, ЈЗ
10:00 0 мм +31.9° +33.7° 727.000 мм.ж.с 52% 1 м/с, ЈЗ
11:00 0 мм +33.6° +35.2° 727.000 мм.ж.с 47% 1 м/с, ЈЗ
12:00 0 мм +35.2° +36.5° 726.000 мм.ж.с 41% 1 м/с, Ј
13:00 0.02 мм +34.5° +35.8° 726.000 мм.ж.с 42% 1 м/с, Ј
14:00 0.02 мм +33.8° +35.2° 725.000 мм.ж.с 44% 1 м/с, ЈИ
15:00 0.02 мм +33.1° +34.5° 724.000 мм.ж.с 45% 1 м/с, ЈИ
16:00 0.01 мм +31.9° +33.4° 724.000 мм.ж.с 49% 1 м/с, ЈИ
17:00 0.01 мм +30.6° +32.3° 724.000 мм.ж.с 53% 1 м/с, Ј
18:00 0.01 мм +29.3° +31.1° 724.000 мм.ж.с 57% 1 м/с, ЈЗ
19:00 3 мм +27.2° +29.5° 725.000 мм.ж.с 69% 2 м/с, СИ
20:00 3 мм +25° +27.7° 726.000 мм.ж.с 81% 3 м/с, СИ
21:00 3 мм +22.8° +25.7° 727.000 мм.ж.с 93% 4 м/с, СИ
22:00 1.35 мм +22.8° +25.5° 727.000 мм.ж.с 90% 3 м/с, СИ
23:00 1.35 мм +22.8° +25.3° 727.000 мм.ж.с 87% 2 м/с, СИ
Недеља, 16 Маја
Време Падавине Температура Осећа се Притисак Влажност Ветар
00:00 1.35 мм +22.8° +25.1° 726.000 мм.ж.с 84% 1 м/с, И
01:00 0 мм +22.8° +25.1° 726.000 мм.ж.с 85% 1 м/с, ЈИ
02:00 0 мм +22.7° +25.1° 725.000 мм.ж.с 87% 1 м/с, Ј
03:00 0 мм +22.6° +25.1° 725.000 мм.ж.с 88% 1 м/с, Ј
04:00 0 мм +22.7° +25.3° 725.000 мм.ж.с 90% 1 м/с, ЈЗ
05:00 0 мм +22.8° +25.5° 726.000 мм.ж.с 91% 1 м/с, ЈЗ
06:00 0 мм +22.8° +25.7° 726.000 мм.ж.с 93% 1 м/с, ЈЗ

Такође

Meteograms hourly weather Мапе времена Преглед времена
Meteograms hourly weather Мапе времена Преглед времена
 
Време у Србији:
О проjекту
© meteoprog.rs 2003-2021.
Meteoprog.ua - погода в Украине 0.0400
sitemap